Time,TemperatureF,DewpointF,PressureIn,WindDirection,WindDirectionDegrees,WindSpeedMPH,WindSpeedGustMPH,Humidity,HourlyPrecipIn,Conditions,Clouds,dailyrainin,SolarRadiationWatts/m^2,SoftwareType,DateUTC
2013-04-22 00:05:00,48.5,38.0,30.48,SE,144,2.0,10.0,68,0.00,,,0.00,0,weatherlink.com 1.10,2013-04-22 04:05:00,
2013-04-22 00:20:00,48.0,38.0,30.49,ENE,64,2.0,10.0,69,0.00,,,0.00,0,weatherlink.com 1.10,2013-04-22 04:20:00,
2013-04-22 00:35:00,47.4,38.0,30.49,ENE,63,1.0,5.0,70,0.00,,,0.00,0,weatherlink.com 1.10,2013-04-22 04:35:00,
2013-04-22 00:50:00,47.0,37.0,30.48,NE,53,6.0,10.0,68,0.00,,,0.00,0,weatherlink.com 1.10,2013-04-22 04:50:00,
2013-04-22 01:05:00,46.5,36.0,30.48,NE,55,0.0,6.0,68,0.00,,,0.00,0,weatherlink.com 1.10,2013-04-22 05:05:00,
2013-04-22 01:20:00,45.9,36.0,30.48,ENE,67,2.0,7.0,68,0.00,,,0.00,0,weatherlink.com 1.10,2013-04-22 05:20:00,
2013-04-22 01:35:00,45.4,36.0,30.48,NE,34,0.0,12.0,69,0.00,,,0.00,0,weatherlink.com 1.10,2013-04-22 05:35:00,
2013-04-22 01:50:00,44.8,35.0,30.48,NE,53,0.0,8.0,69,0.00,,,0.00,0,weatherlink.com 1.10,2013-04-22 05:50:00,
2013-04-22 02:05:00,44.2,34.0,30.48,ENE,72,4.0,10.0,67,0.00,,,0.00,0,weatherlink.com 1.10,2013-04-22 06:05:00,
2013-04-22 02:20:00,43.7,32.0,30.47,ENE,58,6.0,12.0,64,0.00,,,0.00,0,weatherlink.com 1.10,2013-04-22 06:20:00,
2013-04-22 02:35:00,43.3,32.0,30.46,East,86,0.0,3.0,64,0.00,,,0.00,0,weatherlink.com 1.10,2013-04-22 06:35:00,
2013-04-22 02:50:00,42.6,31.0,30.46,NNE,17,3.0,5.0,64,0.00,,,0.00,0,weatherlink.com 1.10,2013-04-22 06:50:00,
2013-04-22 03:06:00,42.1,31.0,30.45,NE,55,1.0,2.0,64,0.00,,,0.00,0,weatherlink.com 1.10,2013-04-22 07:06:00,
2013-04-22 03:21:00,41.7,30.0,30.45,NE,40,0.0,6.0,64,0.00,,,0.00,0,weatherlink.com 1.10,2013-04-22 07:21:00,
2013-04-22 03:36:00,41.2,31.0,30.44,NE,44,0.0,5.0,67,0.00,,,0.00,0,weatherlink.com 1.10,2013-04-22 07:36:00,
2013-04-22 03:51:00,40.8,32.0,30.43,NNE,32,3.0,6.0,70,0.00,,,0.00,0,weatherlink.com 1.10,2013-04-22 07:51:00,
2013-04-22 04:06:00,40.5,32.0,30.43,NE,55,2.0,4.0,72,0.00,,,0.00,0,weatherlink.com 1.10,2013-04-22 08:06:00,
2013-04-22 04:21:00,40.2,32.0,30.43,NE,46,0.0,7.0,73,0.00,,,0.00,0,weatherlink.com 1.10,2013-04-22 08:21:00,
2013-04-22 04:36:00,40.0,33.0,30.43,NE,53,0.0,6.0,75,0.00,,,0.00,0,weatherlink.com 1.10,2013-04-22 08:36:00,
2013-04-22 04:51:00,39.7,33.0,30.43,NE,49,0.0,4.0,76,0.00,,,0.00,0,weatherlink.com 1.10,2013-04-22 08:51:00,
2013-04-22 05:06:00,39.4,33.0,30.43,ENE,63,0.0,3.0,78,0.00,,,0.00,0,weatherlink.com 1.10,2013-04-22 09:06:00,
2013-04-22 05:21:00,39.1,33.0,30.43,NE,40,0.0,4.0,80,0.00,,,0.00,0,weatherlink.com 1.10,2013-04-22 09:21:00,
2013-04-22 05:36:00,38.9,34.0,30.44,NE,36,0.0,3.0,81,0.00,,,0.00,0,weatherlink.com 1.10,2013-04-22 09:36:00,
2013-04-22 05:51:00,38.5,34.0,30.44,NE,45,0.0,2.0,83,0.00,,,0.00,0,weatherlink.com 1.10,2013-04-22 09:51:00,
2013-04-22 06:06:00,38.1,34.0,30.44,NE,34,0.0,1.0,85,0.00,,,0.00,0,weatherlink.com 1.10,2013-04-22 10:06:00,
2013-04-22 06:21:00,37.8,34.0,30.44,North,5,0.0,4.0,86,0.00,,,0.00,0,weatherlink.com 1.10,2013-04-22 10:21:00,
2013-04-22 06:36:00,37.7,34.0,30.44,North,10,0.0,2.0,87,0.00,,,0.00,0,weatherlink.com 1.10,2013-04-22 10:36:00,
2013-04-22 06:51:00,37.7,34.0,30.44,NE,48,0.0,3.0,87,0.00,,,0.00,16,weatherlink.com 1.10,2013-04-22 10:51:00,
2013-04-22 07:06:00,37.7,35.0,30.44,NNE,26,1.0,6.0,88,0.00,,,0.00,28,weatherlink.com 1.10,2013-04-22 11:06:00,
2013-04-22 07:21:00,38.3,35.0,30.43,ENE,59,2.0,5.0,87,0.00,,,0.00,81,weatherlink.com 1.10,2013-04-22 11:21:00,
2013-04-22 07:36:00,39.9,36.0,30.43,NE,35,0.0,6.0,84,0.00,,,0.00,121,weatherlink.com 1.10,2013-04-22 11:36:00,
2013-04-22 07:51:00,41.1,36.0,30.43,North,360,2.0,5.0,81,0.00,,,0.00,174,weatherlink.com 1.10,2013-04-22 11:51:00,
2013-04-22 08:06:00,42.1,36.0,30.43,East,82,1.0,12.0,80,0.00,,,0.00,225,weatherlink.com 1.10,2013-04-22 12:06:00,
2013-04-22 08:21:00,42.7,36.0,30.44,NE,52,3.0,6.0,77,0.00,,,0.00,278,weatherlink.com 1.10,2013-04-22 12:21:00,
2013-04-22 08:37:00,43.6,37.0,30.45,NNE,15,4.0,6.0,77,0.00,,,0.00,330,weatherlink.com 1.10,2013-04-22 12:37:00,
2013-04-22 08:52:00,44.2,36.0,30.44,NNE,26,8.0,15.0,72,0.00,,,0.00,385,weatherlink.com 1.10,2013-04-22 12:52:00,
2013-04-22 09:07:00,45.2,38.0,30.44,NNE,12,2.0,9.0,75,0.00,,,0.00,436,weatherlink.com 1.10,2013-04-22 13:07:00,
2013-04-22 09:22:00,46.3,38.0,30.44,NNW,329,1.0,8.0,72,0.00,,,0.00,490,weatherlink.com 1.10,2013-04-22 13:22:00,
2013-04-22 09:37:00,47.2,37.0,30.44,NNE,22,5.0,11.0,69,0.00,,,0.00,534,weatherlink.com 1.10,2013-04-22 13:37:00,
2013-04-22 09:52:00,48.3,38.0,30.43,East,90,4.0,9.0,68,0.00,,,0.00,582,weatherlink.com 1.10,2013-04-22 13:52:00,
2013-04-22 10:07:00,49.8,40.0,30.43,NNW,347,2.0,9.0,68,0.00,,,0.00,628,weatherlink.com 1.10,2013-04-22 14:07:00,
2013-04-22 10:22:00,49.9,39.0,30.43,NNE,26,0.0,10.0,67,0.00,,,0.00,680,weatherlink.com 1.10,2013-04-22 14:22:00,
2013-04-22 10:37:00,51.1,40.0,30.43,North,355,2.0,10.0,65,0.00,,,0.00,677,weatherlink.com 1.10,2013-04-22 14:37:00,
2013-04-22 10:52:00,51.2,39.0,30.43,NNE,28,3.0,14.0,64,0.00,,,0.00,805,weatherlink.com 1.10,2013-04-22 14:52:00,
2013-04-22 11:07:00,52.7,39.0,30.42,NE,52,5.0,9.0,61,0.00,,,0.00,802,weatherlink.com 1.10,2013-04-22 15:07:00,
2013-04-22 11:22:00,53.1,40.0,30.43,East,92,1.0,12.0,61,0.00,,,0.00,844,weatherlink.com 1.10,2013-04-22 15:22:00,
2013-04-22 11:37:00,53.4,39.0,30.43,North,5,3.0,11.0,59,0.00,,,0.00,722,weatherlink.com 1.10,2013-04-22 15:37:00,
2013-04-22 11:52:00,54.0,40.0,30.42,West,265,3.0,11.0,59,0.00,,,0.00,891,weatherlink.com 1.10,2013-04-22 15:52:00,
2013-04-22 12:07:00,54.6,41.0,30.41,WNW,286,2.0,13.0,61,0.00,,,0.00,949,weatherlink.com 1.10,2013-04-22 16:07:00,
2013-04-22 12:23:00,55.6,41.0,30.40,NE,37,1.0,11.0,59,0.00,,,0.00,947,weatherlink.com 1.10,2013-04-22 16:23:00,
2013-04-22 12:38:00,56.8,41.0,30.38,SE,136,7.0,9.0,56,0.00,,,0.00,926,weatherlink.com 1.10,2013-04-22 16:38:00,
2013-04-22 12:53:00,56.0,41.0,30.38,NE,42,4.0,12.0,58,0.00,,,0.00,946,weatherlink.com 1.10,2013-04-22 16:53:00,
2013-04-22 13:08:00,57.7,41.0,30.37,NNW,327,0.0,10.0,55,0.00,,,0.00,949,weatherlink.com 1.10,2013-04-22 17:08:00,
2013-04-22 13:23:00,57.2,40.0,30.36,NE,34,5.0,14.0,53,0.00,,,0.00,731,weatherlink.com 1.10,2013-04-22 17:23:00,
2013-04-22 13:38:00,58.3,41.0,30.36,East,94,1.0,14.0,52,0.00,,,0.00,969,weatherlink.com 1.10,2013-04-22 17:38:00,
2013-04-22 13:53:00,58.9,41.0,30.35,South,173,0.0,12.0,51,0.00,,,0.00,919,weatherlink.com 1.10,2013-04-22 17:53:00,
2013-04-22 14:08:00,59.5,41.0,30.34,West,270,1.0,6.0,50,0.00,,,0.00,963,weatherlink.com 1.10,2013-04-22 18:08:00,
2013-04-22 14:23:00,60.2,41.0,30.33,SSE,165,2.0,10.0,49,0.00,,,0.00,1030,weatherlink.com 1.10,2013-04-22 18:23:00,
2013-04-22 14:38:00,60.3,39.0,30.33,NNE,22,2.0,11.0,46,0.00,,,0.00,1004,weatherlink.com 1.10,2013-04-22 18:38:00,
2013-04-22 14:53:00,60.5,40.0,30.32,North,5,3.0,11.0,47,0.00,,,0.00,1032,weatherlink.com 1.10,2013-04-22 18:53:00,
2013-04-22 15:08:00,61.4,41.0,30.31,ESE,119,3.0,10.0,47,0.00,,,0.00,464,weatherlink.com 1.10,2013-04-22 19:08:00,
2013-04-22 15:23:00,62.1,41.0,30.31,North,349,2.0,8.0,47,0.00,,,0.00,513,weatherlink.com 1.10,2013-04-22 19:23:00,
2013-04-22 15:38:00,62.0,42.0,30.30,NE,55,6.0,12.0,48,0.00,,,0.00,548,weatherlink.com 1.10,2013-04-22 19:38:00,
2013-04-22 15:53:00,61.8,40.0,30.30,NE,54,3.0,9.0,45,0.00,,,0.00,464,weatherlink.com 1.10,2013-04-22 19:53:00,
2013-04-22 16:08:00,61.0,41.0,30.29,SW,236,2.0,8.0,49,0.00,,,0.00,434,weatherlink.com 1.10,2013-04-22 20:08:00,
2013-04-22 16:23:00,61.7,41.0,30.29,ENE,62,1.0,9.0,46,0.00,,,0.00,380,weatherlink.com 1.10,2013-04-22 20:23:00,
2013-04-22 16:38:00,61.2,40.0,30.28,NE,56,2.0,9.0,45,0.00,,,0.00,357,weatherlink.com 1.10,2013-04-22 20:38:00,
2013-04-22 16:53:00,60.6,40.0,30.28,NW,321,0.0,15.0,47,0.00,,,0.00,283,weatherlink.com 1.10,2013-04-22 20:53:00,
2013-04-22 17:08:00,60.5,40.0,30.28,ENE,63,4.0,7.0,48,0.00,,,0.00,236,weatherlink.com 1.10,2013-04-22 21:08:00,
2013-04-22 17:23:00,60.1,41.0,30.28,NE,49,7.0,12.0,49,0.00,,,0.00,186,weatherlink.com 1.10,2013-04-22 21:23:00,
2013-04-22 17:38:00,59.7,41.0,30.27,ESE,120,3.0,9.0,50,0.00,,,0.00,160,weatherlink.com 1.10,2013-04-22 21:38:00,
2013-04-22 17:54:00,59.1,41.0,30.27,North,360,0.0,9.0,52,0.00,,,0.00,137,weatherlink.com 1.10,2013-04-22 21:54:00,
2013-04-22 18:08:00,59.2,42.0,30.28,East,94,4.0,9.0,53,0.00,,,0.00,149,weatherlink.com 1.10,2013-04-22 22:08:00,
2013-04-22 18:23:00,58.8,42.0,30.27,East,97,6.0,8.0,55,0.00,,,0.00,102,weatherlink.com 1.10,2013-04-22 22:23:00,
2013-04-22 18:38:00,58.1,44.0,30.27,North,355,0.0,12.0,59,0.00,,,0.00,90,weatherlink.com 1.10,2013-04-22 22:38:00,
2013-04-22 18:53:00,58.0,43.0,30.27,NE,51,2.0,15.0,58,0.00,,,0.00,72,weatherlink.com 1.10,2013-04-22 22:53:00,
2013-04-22 19:08:00,57.4,43.0,30.28,ESE,106,2.0,12.0,59,0.00,,,0.00,49,weatherlink.com 1.10,2013-04-22 23:08:00,
2013-04-22 19:23:00,56.9,43.0,30.28,NNW,344,5.0,10.0,61,0.00,,,0.00,26,weatherlink.com 1.10,2013-04-22 23:23:00,
2013-04-22 19:38:00,56.6,44.0,30.29,NE,52,1.0,7.0,63,0.00,,,0.00,7,weatherlink.com 1.10,2013-04-22 23:38:00,
2013-04-22 19:53:00,56.2,43.0,30.29,NE,44,1.0,6.0,62,0.00,,,0.00,0,weatherlink.com 1.10,2013-04-22 23:53:00,
2013-04-22 20:08:00,55.9,44.0,30.29,NE,55,0.0,3.0,64,0.00,,,0.00,0,weatherlink.com 1.10,2013-04-23 00:08:00,
2013-04-22 20:23:00,55.7,44.0,30.29,ENE,78,5.0,11.0,64,0.00,,,0.00,0,weatherlink.com 1.10,2013-04-23 00:23:00,
2013-04-22 20:38:00,55.4,44.0,30.30,North,5,0.0,8.0,66,0.00,,,0.00,0,weatherlink.com 1.10,2013-04-23 00:38:00,
2013-04-22 20:53:00,55.1,43.0,30.30,NNE,30,1.0,7.0,65,0.00,,,0.00,0,weatherlink.com 1.10,2013-04-23 00:53:00,
2013-04-22 21:08:00,54.8,44.0,30.30,NW,321,0.0,5.0,66,0.00,,,0.00,0,weatherlink.com 1.10,2013-04-23 01:08:00,
2013-04-22 21:24:00,54.2,43.0,30.30,NNE,31,4.0,17.0,66,0.00,,,0.00,0,weatherlink.com 1.10,2013-04-23 01:24:00,
2013-04-22 21:39:00,53.7,43.0,30.31,NNE,19,1.0,11.0,68,0.00,,,0.00,0,weatherlink.com 1.10,2013-04-23 01:39:00,
2013-04-22 21:54:00,53.2,44.0,30.31,NNE,13,4.0,11.0,70,0.00,,,0.00,0,weatherlink.com 1.10,2013-04-23 01:54:00,
2013-04-22 22:09:00,52.6,44.0,30.31,ENE,73,2.0,11.0,72,0.00,,,0.00,0,weatherlink.com 1.10,2013-04-23 02:09:00,
2013-04-22 22:24:00,52.1,44.0,30.31,NE,48,1.0,12.0,75,0.00,,,0.00,0,weatherlink.com 1.10,2013-04-23 02:24:00,
2013-04-22 22:39:00,51.5,45.0,30.31,ENE,63,1.0,9.0,78,0.00,,,0.00,0,weatherlink.com 1.10,2013-04-23 02:39:00,
2013-04-22 22:54:00,51.2,45.0,30.30,NNE,32,2.0,12.0,79,0.00,,,0.00,0,weatherlink.com 1.10,2013-04-23 02:54:00,
2013-04-22 23:09:00,50.9,45.0,30.30,ENE,69,0.0,11.0,81,0.00,,,0.00,0,weatherlink.com 1.10,2013-04-23 03:09:00,
2013-04-22 23:24:00,50.6,45.0,30.29,NE,50,9.0,9.0,82,0.00,,,0.00,0,weatherlink.com 1.10,2013-04-23 03:24:00,
2013-04-22 23:39:00,50.5,45.0,30.29,NNW,335,0.0,5.0,82,0.00,,,0.00,0,weatherlink.com 1.10,2013-04-23 03:39:00,
2013-04-22 23:54:00,50.4,45.0,30.29,North,360,0.0,12.0,82,0.00,,,0.00,0,weatherlink.com 1.10,2013-04-23 03:54:00,